Weather History for KDNL - February, 2014

Change the Weather History Date:

Friday, February 21, 2014

  Actual Average Record
Temperature  
Mean Temperature 60 °F -  
Max Temperature 67 °F 59 °F 78 °F (1997)
Min Temperature 53 °F 40 °F 31 °F (2009)
Degree Days  
Heating Degree Days 5    
Month to date heating degree days 295  
Growing Degree Days 10 (Base 50)    
Moisture  
Dew Point 51 °F    
Average Humidity 69    
Maximum Humidity 93    
Minimum Humidity 27    
Precipitation  
Precipitation 0.44 in - - ()
Month to date precipitation 3.49  
Year to date precipitation 6.02  
Sea Level Pressure  
Sea Level Pressure 29.95 in    
Wind  
Wind Speed 8 mph (SW)    
Max Wind Speed 22 mph    
Max Gust Speed 29 mph    
Visibility 9 miles    
Events Rain    
Averages and records for this station are not official NWS values.
T = Trace of Precipitation, MM = Missing Value Source: NWS Daily Summary

Daily Weather History Graph

Daily Weather History Graph

Search for Another Location

Airport or City:

Trip Planner

Search our weather history database for the weather conditions in past years. The results will help you decide how hot, cold, wet, or windy it might be!

Date:

Astronomy

Feb. 21, 2014 Rise Set
Actual Time 7:05 AM EST 6:18 PM EST
Civil Twilight 6:40 AM EST 6:43 PM EST
Nautical Twilight 6:11 AM EST 7:12 PM EST
Astronomical Twilight 5:42 AM EST 7:41 PM EST
Moon No Moon Rise 10:48 AM EST (2/21)
Length of Visible Light 12h 02m
Length of Day
11h 12m
Waning Gibbous, 61% of the Moon is Illuminated
Feb 21
Waning Gibbous
Feb 22
Last Quarter
Mar 1
New
Mar 8
First Quarter
Mar 16
Full

Hourly Weather History & Observations

Time (EST) Temp. Dew Point Humidity Pressure Visibility Wind Dir Wind Speed Gust Speed Precip Events Conditions
12:53 AM 64.9 °F 59.0 °F 81% 29.96 in 10.0 mi SSE 9.2 mph - N/A   Clear
1:53 AM 64.0 °F 59.0 °F 84% 29.96 in 10.0 mi South 8.1 mph - N/A   Clear
2:53 AM 64.0 °F 59.0 °F 84% 29.94 in 10.0 mi South 8.1 mph - N/A   Clear
3:36 AM 63.0 °F 60.1 °F 90% 29.94 in 10.0 mi South 6.9 mph - N/A   Mostly Cloudy
3:53 AM 64.0 °F 60.1 °F 87% 29.92 in 10.0 mi South 9.2 mph - N/A   Overcast
4:53 AM 64.0 °F 60.1 °F 87% 29.90 in 10.0 mi South 11.5 mph - N/A   Overcast
5:09 AM 64.9 °F 60.1 °F 84% 29.90 in 10.0 mi South 11.5 mph - N/A   Overcast
5:53 AM 66.0 °F 60.1 °F 81% 29.88 in 10.0 mi South 18.4 mph 24.2 mph N/A   Overcast
6:53 AM 66.0 °F 61.0 °F 84% 29.90 in 10.0 mi South 15.0 mph - N/A   Overcast
7:23 AM 66.0 °F 61.0 °F 84% 29.92 in 10.0 mi South 13.8 mph - 0.00 in Rain Light Rain
7:53 AM 66.0 °F 62.1 °F 87% 29.91 in 10.0 mi South 15.0 mph - 0.00 in   Overcast
8:02 AM 66.9 °F 62.1 °F 84% 29.93 in 10.0 mi SSW 17.3 mph 24.2 mph N/A   Overcast
8:53 AM 66.0 °F 63.0 °F 90% 29.93 in 2.0 mi SSW 12.7 mph 24.2 mph 0.06 in Rain Rain
8:59 AM 66.0 °F 63.0 °F 90% 29.97 in 1.0 mi SW 13.8 mph 25.3 mph 0.17 in Rain Heavy Rain
9:04 AM 64.9 °F 62.1 °F 90% 29.95 in 0.8 mi SW 15.0 mph 25.3 mph 0.24 in Rain Heavy Rain
9:09 AM 64.9 °F 61.0 °F 87% 29.95 in 1.5 mi SW 12.7 mph 24.2 mph 0.25 in Rain Rain
9:11 AM 64.9 °F 61.0 °F 87% 29.95 in 3.0 mi WSW 11.5 mph 24.2 mph 0.25 in Rain Rain
9:53 AM 64.0 °F 62.1 °F 93% 29.90 in 3.0 mi SSE 6.9 mph - 0.35 in Rain Rain
10:38 AM 63.0 °F 61.0 °F 93% 29.95 in 10.0 mi SSW 10.4 mph - 0.02 in   Mostly Cloudy
10:53 AM 63.0 °F 61.0 °F 93% 29.94 in 10.0 mi SSW 8.1 mph - 0.02 in   Mostly Cloudy
10:57 AM 63.0 °F 61.0 °F 93% 29.95 in 10.0 mi SSW 8.1 mph - N/A   Overcast
11:28 AM 60.1 °F 52.0 °F 75% 29.96 in 10.0 mi West 6.9 mph - 0.01 in Rain Light Rain
11:53 AM 60.1 °F 51.1 °F 72% 29.95 in 10.0 mi Variable 4.6 mph - 0.01 in   Overcast
12:00 PM 60.1 °F 51.1 °F 72% 29.95 in 10.0 mi Variable 5.8 mph - N/A   Overcast
12:09 PM 60.1 °F 50.0 °F 69% 29.96 in 10.0 mi Variable 5.8 mph - N/A   Overcast
12:53 PM 62.1 °F 50.0 °F 65% 29.94 in 10.0 mi WNW 8.1 mph - N/A   Overcast
1:53 PM 64.9 °F 45.0 °F 48% 29.93 in 10.0 mi WNW 12.7 mph - N/A   Mostly Cloudy
2:53 PM 64.9 °F 41.0 °F 42% 29.94 in 10.0 mi West 8.1 mph 18.4 mph N/A   Partly Cloudy
3:53 PM 66.0 °F 37.9 °F 36% 29.95 in 10.0 mi West 9.2 mph - N/A   Clear
4:53 PM 66.0 °F 32.0 °F 28% 29.97 in 10.0 mi Variable 4.6 mph - N/A   Clear
5:53 PM 63.0 °F 28.9 °F 28% 29.99 in 10.0 mi WNW 6.9 mph - N/A   Clear
6:53 PM 60.1 °F 27.0 °F 28% 30.01 in 10.0 mi Calm Calm - N/A   Clear
7:53 PM 57.0 °F 28.9 °F 34% 30.02 in 10.0 mi Calm Calm - N/A   Clear
8:53 PM 57.0 °F 28.9 °F 34% 30.03 in 10.0 mi West 4.6 mph - N/A   Clear
9:53 PM 55.0 °F 28.0 °F 35% 30.04 in 10.0 mi WNW 6.9 mph - N/A   Clear
10:53 PM 54.0 °F 25.0 °F 33% 30.06 in 10.0 mi WNW 5.8 mph - N/A   Clear
11:53 PM 53.1 °F 25.0 °F 34% 30.06 in 10.0 mi WNW 6.9 mph - N/A   Clear